This is the latest recevied weather packets stored in our database for station/object KE5OYL. If no packets are shown the sender has not sent any weather packets the latest 10 day(s).
| Time | Temp. | Humidity | Pressure | Rain* | Wind** | Luminosity | Snow |
|---|---|---|---|---|---|---|---|
| 1777687261 | 15.56° C | 68% | 1018.6 hPa | 0 mm | - | 0 W/m² | - |
| 1777686958 | 15.56° C | 68% | 1018.4 hPa | 0 mm | - | 0 W/m² | - |
| 1777686655 | 15.56° C | 68% | 1018.6 hPa | 0 mm | - | 0 W/m² | - |
| 1777686352 | 15.56° C | 69% | 1018.3 hPa | 0 mm | - | 0 W/m² | - |
| 1777686049 | 15.56° C | 69% | 1018.1 hPa | 0 mm | - | 0 W/m² | - |
| 1777685744 | 15.56° C | 69% | 1017.9 hPa | 0 mm | - | 0 W/m² | - |
| 1777685441 | 15.56° C | 70% | 1018.1 hPa | 0 mm | - | 0 W/m² | - |
| 1777685138 | 15.56° C | 70% | 1017.6 hPa | 0 mm | - | 0 W/m² | - |
| 1777684836 | 15.56° C | 69% | 1017.7 hPa | 0 mm | - | 0 W/m² | - |
| 1777684532 | 15.56° C | 70% | 1017.4 hPa | 0 mm | - | 1 W/m² | - |
| 1777684228 | 15.56° C | 70% | 1017.7 hPa | 0 mm | - | 2 W/m² | - |
| 1777683926 | 15.56° C | 70% | 1017.4 hPa | 0 mm | - | 2 W/m² | - |
| 1777683622 | 15.56° C | 69% | 1017.3 hPa | 0 mm | - | 3 W/m² | - |
| 1777683320 | 15.56° C | 69% | 1017.3 hPa | 0 mm | - | 5 W/m² | - |
| 1777683018 | 15.56° C | 68% | 1017.3 hPa | 0 mm | - | 6 W/m² | - |
| 1777682713 | 16.11° C | 69% | 1017.3 hPa | 0 mm | - | 7 W/m² | - |
| 1777682410 | 16.11° C | 68% | 1017.1 hPa | 0 mm | - | 8 W/m² | - |
| 1777682108 | 16.11° C | 68% | 1017.1 hPa | 0 mm | - | 12 W/m² | - |
| 1777681805 | 16.11° C | 68% | 1017.1 hPa | 0 mm | - | 14 W/m² | - |
| 1777681501 | 16.11° C | 68% | 1016.8 hPa | 0 mm | - | 16 W/m² | - |
| 1777681199 | 16.11° C | 68% | 1016.9 hPa | 0 mm | - | 27 W/m² | - |
| 1777680896 | 16.11° C | 67% | 1016.5 hPa | 0 mm | - | 25 W/m² | - |
| 1777680593 | 16.11° C | 67% | 1016.9 hPa | 0 mm | - | 25 W/m² | - |
| 1777680292 | 16.11° C | 67% | 1017.1 hPa | 0 mm | - | 32 W/m² | - |
| 1777679988 | 16.67° C | 67% | 1016.7 hPa | 0 mm | - | 41 W/m² | - |
* Rain latest hour (hover to see other rain measurements)
** Current wind speed in m/s (hover to see current wind gust speed)